(2020 FD2) |
Classification: Apollo [NEO] SPK-ID: 54016249 |
[ hide orbit diagram ]
For accurate long-term ephemerides, please instead use our Horizons system.This orbit viewer was implemented using two-body methods, and hence should not be used for determining accurate long-term trajectories (over several years or decades) or planetary encounter circumstances.
Orbital Elements at Epoch 2458932.5 (2020-Mar-24.0) TDB
Reference: JPL 2 (heliocentric ecliptic J2000)
Element | Value | Uncertainty (1-sigma) | Units |
e | .9173159813934962 | 0.0029724 | |
a | 3.001521193997771 | 0.089332 | au |
q | .2481778342523271 | 0.0015356 | au |
i | .2732762630300666 | 0.0028423 | deg |
node | 197.8789180901786 | 0.12664 | deg |
peri | 211.9655450344834 | 0.088364 | deg |
M | 8.959530179453903 | 0.42672 | deg |
tp | 2458885.229163866718 (2020-Feb-05.72916387) | 0.14108 | TDB |
period | 1899.374260383234 5.20 | 84.795 0.2322 | d yr |
n | .1895361053947121 | 0.0084616 | deg/d |
Q | 5.754864553743214 | 0.17128 | au |
|
| | Orbit Determination Parameters
Additional Information
|
[ show covariance matrix ]
Physical Parameter Table
Parameter |
Symbol |
Value |
Units |
Sigma |
Reference |
Notes |
absolute magnitude |
H |
25.7 |
|
.50164 |
E2020-FI4 |
autocmod 2.8 |
|
[ show close-approach data ]
|